This demonstration page uses our WeatherBlox Daily Observations layout. Learn more.

Left ArrowRight Arrow

Hourly Observations for January 31, 2019

Temp ( °F °C ) Dew Point ( °F °C ) Humidity (%) Winds ( mph kmh ) Pressure ( in mb ) Visibility ( mi km ) Precip ( " mm )
12:52 am 00:52 Mostly Clear -2 -18.9 -10 -23.3 68 68 SSE 12 19 30.34 1028 10 16 0.00 0.00
1:52 am 01:52 Cloudy -2 -18.9 -9 -22.8 72 72 SSE 12 19 30.32 1027 10 16 0.00 0.00
2:52 am 02:52 Cloudy -1 -18.3 -9 -22.8 68 68 SSE 12 19 30.32 1027 10 16 0.00 0.00
3:52 am 03:52 Cloudy -1 -18.3 -8 -22.2 72 72 SSE 9 15 30.29 1026 10 16 0.00 0.00
4:52 am 04:52 Cloudy with Light Snow 0 -17.8 -7 -21.7 72 72 SSE 10 17 30.26 1025 6 10 0.00 0.03
5:52 am 05:52 Cloudy 1 -17.2 -6 -21.1 72 72 SSE 14 22 30.22 1024 10 16 0.00 0.03
6:52 am 06:52 Cloudy 2 -16.7 -6 -21.1 69 69 SSE 13 20 30.24 1024 10 16 0.00 0.00
7:52 am 07:52 Cloudy 3 -16.1 -5 -20.6 69 69 SSE 15 24 30.22 1023 10 16 0.00 0.00
8:52 am 08:52 Mostly Cloudy 4 -15.6 -4 -20 69 69 SSE 12 19 30.24 1024 10 16 0.00 0.00
9:52 am 09:52 Mostly Cloudy 6 -14.4 -4 -20 63 63 S 15 24 30.21 1023 10 16 0.00 0.00
10:52 am 10:52 Mostly Cloudy 9 -12.8 -1 -18.3 64 64 SSE 10 17 30.23 1024 10 16 0.00 0.00
11:52 am 11:52 Mostly Cloudy 9 -12.8 -1 -18.3 64 64 SE 12 19 30.20 1023 10 16 0.00 0.00
12:52 pm 12:52 Mostly Cloudy 11 -11.7 1 -17.2 64 64 SSE 14 22 30.14 1021 10 16 0.00 0.00
1:52 pm 13:52 Mostly Cloudy 12 -11.1 3 -16.1 67 67 SSE 16 26 30.13 1020 10 16 0.00 0.00
2:52 pm 14:52 Mostly Cloudy 14 -10 4 -15.6 64 64 SSE 14 22 30.11 1020 10 16 0.00 0.00
3:52 pm 15:52 Partly Cloudy 16 -8.9 6 -14.4 65 65 SSE 15 24 30.10 1019 10 16 0.00 0.00
4:52 pm 16:52 Mostly Cloudy 16 -8.9 5 -15 62 62 SSE 12 19 30.12 1020 10 16 0.00 0.00
5:52 pm 17:52 Partly Cloudy 14 -10 5 -15 67 67 SE 8 13 30.13 1020 10 16 0.00 0.00
6:52 pm 18:52 Partly Cloudy 13 -10.6 4 -15.6 67 67 SE 9 15 30.13 1020 10 16 0.00 0.00
7:52 pm 19:52 Partly Cloudy 12 -11.1 4 -15.6 70 70 SE 9 15 30.14 1021 10 16 0.00 0.00
8:52 pm 20:52 Mostly Cloudy 13 -10.6 5 -15 70 70 SSE 9 15 30.14 1021 10 16 0.00 0.00
9:52 pm 21:52 Mostly Cloudy 13 -10.6 5 -15 70 70 SSE 8 13 30.15 1021 10 16 0.00 0.00
10:52 pm 22:52 Partly Cloudy 13 -10.6 5 -15 70 70 ESE 7 11 30.15 1021 10 16 0.00 0.00
11:52 pm 23:52 Partly Cloudy 11 -11.7 4 -15.6 73 73 SE 8 13 30.16 1021 10 16 0.00 0.00

Powered by AerisWeather